Temp
13 15 17 19 20 21 22 23 23 24 25 25 26 26 26 28 29 29 30 32 32 32 31 31 28 28 29 31 31 30 32 31 31 30 30 30 29 30 30 29 28 28 27 26 22
11 12 15 18 19 21 22 23 24 24 24 24 25 26 26 27 28 27 31 32 33 32 31 32 33 30 32 31 31 32 31 32 33 32 31 30 30 30 29 28 26 25 25 23 23
11 11 13 16 18 20 22 23 24 24 24 24 24 26 26 27 28 32 32 32 32 32 32 31 31 32 32 31 32 31 32 33 33 32 32 30 30 30 29 29 28 26 25 24 23
11 11 13 15 17 19 21 22 23 24 24 24 24 25 26 26 31 31 32 32 31 31 32 32 33 32 32 33 33 32 33 33 32 31 31 30 30 30 30 30 30 28 26 25 25
12 12 12 14 16 19 21 22 23 23 24 24 23 24 25 28 30 31 31 31 32 31 32 33 33 33 33 34 34 33 33 32 32 31 31 31 30 30 30 29 28 27 26 26 26
11 11 12 15 16 18 21 22 23 23 23 23 23 24 24 28 31 31 31 32 32 32 32 32 34 34 34 34 35 33 33 32 32 31 31 31 30 30 29 28 27 26 26 27 27
12 11 11 12 14 18 20 22 23 23 23 23 23 23 24 30 31 31 31 32 32 32 34 33 33 34 34 35 34 34 32 32 32 31 31 31 30 30 28 28 27 27 27 27 27
11 11 11 12 14 17 20 22 23 23 23 23 22 22 27 30 30 31 31 32 33 33 32 33 32 34 34 34 34 33 33 32 31 31 30 31 31 29 28 28 28 28 27 27 27
11 11 12 13 15 19 20 22 23 23 22 22 21 22 29 30 29 31 31 32 32 32 32 32 33 33 34 34 33 33 33 32 31 32 31 31 31 30 28 29 29 28 28 28 27
11 13 14 13 15 19 21 22 22 21 21 20 20 25 28 30 29 30 31 32 34 34 34 34 33 34 34 35 33 33 33 32 32 32 31 31 31 30 29 29 29 29 29 28 29
12 14 15 14 15 17 20 20 23 23 21 27 27 26 28 28 28 31 31 32 34 33 34 32 35 35 34 33 34 34 33 33 34 33 32 32 31 32 30 29 30 29 29 30 30
13 15 15 15 15 18 18 22 23 22 26 24 24 24 24 26 29 31 31 34 33 33 32 33 34 34 33 32 33 33 33 34 34 33 32 31 32 32 31 30 31 30 30 30 31
15 15 15 18 16 17 16 21 21 21 25 26 24 26 27 28 30 31 32 32 33 32 32 33 34 33 33 33 34 34 34 34 35 32 32 31 32 32 32 31 31 31 31 31 31
15 15 15 18 15 15 17 21 20 21 26 27 26 28 27 28 30 30 31 33 32 33 32 33 33 33 34 34 34 35 34 34 32 33 33 32 34 31 32 31 31 31 31 31 31
14 14 13 15 15 16 20 20 21 22 27 28 27 27 27 30 32 31 30 33 33 32 32 33 33 33 34 35 34 35 34 33 33 32 32 32 33 35 30 31 32 32 32 32 32
14 13 10 12 13 20 20 20 21 27 27 29 29 28 29 30 31 31 32 32 32 32 32 33 32 34 35 34 34 33 34 31 31 33 33 32 33 35 35 33 31 32 32 32 31
15 14 10 12 19 20 20 22 26 26 27 29 29 29 30 30 31 32 32 32 32 31 32 32 34 34 34 34 33 34 34 34 33 33 33 30 32 36 33 31 30 30 30 32 30
16 17 16 17 18 19 20 27 25 26 27 28 28 28 30 30 31 31 31 31 30 32 32 32 32 34 34 35 35 34 34 34 32 33 33 29 33 36 32 30 29 29 28 28 28
16 15 15 17 18 19 25 26 27 26 27 28 28 29 30 30 31 31 31 32 33 32 33 32 32 33 33 34 35 33 33 34 32 29 32 32 32 34 31 31 29 27 27 26 27
14 15 17 17 19 19 26 24 25 24 27 27 28 28 30 31 31 31 30 32 32 32 33 32 33 33 33 33 31 34 33 33 32 32 32 32 31 35 34 33 28 27 26 25 25
14 22 17 18 19 24 26 25 24 26 26 28 28 29 30 30 30 30 31 32 33 32 32 32 33 33 32 33 34 33 33 30 33 32 34 33 34 33 31 28 27 27 27 26 25
16 24 17 17 24 19 25 24 23 27 27 28 27 28 29 29 30 30 32 33 32 31 32 33 33 33 34 31 31 32 33 34 35 31 30 32 34 29 27 26 27 25 24 24 24
20 21 18 18 25 24 22 24 25 27 27 28 28 27 28 29 29 30 30 32 31 32 32 31 32 32 32 32 30 33 31 30 31 31 31 33 35 27 26 27 26 25 23 23 23
19 23 21 20 19 24 24 25 25 26 27 28 28 28 28 28 28 30 30 31 30 33 27 31 32 33 34 34 33 33 31 30 33 34 32 33 34 31 27 28 27 25 24 23 22
18 20 20 24 24 23 24 25 25 26 27 27 27 28 28 28 28 28 29 30 29 25 29 35 33 30 30 30 31 32 32 31 32 32 33 33 32 32 30 29 27 26 25 24 24
19 19 18 20 20 22 20 24 24 25 26 28 27 27 26 27 27 26 28 30 31 29 30 29 31 30 30 30 30 32 31 32 31 30 30 31 31 29 27 26 26 25 25 25 24
13 14 18 19 21 21 24 24 25 24 27 28 28 28 27 27 27 27 25 25 29 30 29 31 30 30 32 29 31 32 32 32 32 32 33 32 33 28 26 27 26 26 25 25 25
Height
791 789 787 785 784 783 782 780 779 777 775 773 770 768 767 765 762 758 754 753 751 752 752 752 754 755 756 754 754 755 774 784 779 781 779 770 776 770 771 778 782 782 787 789 802
791 789 786 784 782 781 779 778 778 776 775 772 770 768 767 764 760 758 753 749 750 750 752 753 752 754 756 758 758 763 776 773 760 761 771 770 772 774 779 783 790 790 792 797 804
791 789 786 784 781 780 778 777 776 775 774 772 770 768 767 764 762 755 752 750 750 749 749 751 753 753 759 759 759 763 772 760 757 757 760 770 774 772 779 788 783 788 794 800 805
790 788 785 783 780 779 777 776 775 774 772 770 769 768 766 764 776 754 753 752 751 751 750 750 751 758 763 765 755 769 757 756 758 758 763 771 770 777 775 777 775 783 789 798 804
789 786 784 781 779 777 775 774 773 772 771 770 769 768 766 766 759 753 752 752 752 752 751 750 753 756 763 757 755 762 759 757 757 759 761 765 774 777 779 776 779 788 796 798 801
788 785 782 779 776 774 772 771 771 770 769 769 768 768 768 771 751 751 752 753 753 752 751 750 748 747 754 754 756 754 758 761 761 764 764 771 776 774 780 779 785 790 794 798 800
786 784 781 778 775 772 770 769 768 768 768 768 767 767 768 756 749 749 750 750 750 751 749 748 747 748 746 755 751 755 768 764 768 768 771 767 784 782 778 779 785 789 793 797 799
784 782 779 776 772 769 767 767 767 766 766 767 767 767 761 748 747 746 746 746 746 747 747 744 745 744 748 749 756 767 768 784 774 771 773 775 790 780 778 781 785 787 790 793 794
782 780 777 774 770 767 765 764 765 765 765 765 767 766 757 746 745 744 744 745 745 745 744 746 745 751 751 762 775 775 787 788 785 768 773 779 786 777 778 780 784 785 787 790 794
780 777 775 771 768 765 763 763 764 765 765 766 766 768 749 748 744 743 742 744 743 743 746 747 751 758 763 768 794 788 786 785 784 773 774 781 781 776 777 779 781 783 785 788 789
778 775 772 769 766 763 763 764 767 767 764 755 755 755 748 747 744 742 741 742 743 747 760 757 764 771 768 767 767 770 777 778 767 766 774 776 778 771 774 777 779 781 782 782 783
776 773 770 766 763 761 762 761 761 764 761 752 754 753 749 751 751 741 741 745 750 764 761 765 774 762 763 767 772 773 777 774 764 762 769 777 775 767 768 768 770 776 778 777 778
774 770 767 764 761 762 761 761 761 762 764 752 750 749 747 748 749 744 741 743 754 765 764 770 765 760 764 768 773 770 773 775 772 770 769 776 775 769 760 760 764 766 767 772 773
772 768 765 762 764 762 761 760 760 761 770 758 752 743 744 743 748 737 738 741 754 762 765 765 759 763 764 768 765 775 761 765 774 778 790 773 792 774 763 762 762 759 764 767 768
769 765 762 761 761 761 760 759 759 762 789 752 749 740 742 743 739 740 737 739 754 759 761 765 763 765 768 763 760 769 760 768 770 782 783 784 790 762 768 765 755 756 754 757 758
765 761 759 759 759 757 757 757 760 774 786 754 744 747 748 743 740 738 740 738 741 755 756 756 750 754 753 753 759 759 765 777 781 781 798 787 786 771 761 760 760 751 751 751 758
759 756 756 757 755 755 756 758 772 781 755 758 752 746 747 749 745 742 748 753 758 775 773 765 758 750 750 762 762 761 773 794 803 804 802 793 790 764 754 757 758 759 756 750 754
754 751 750 752 752 754 756 759 785 768 761 748 748 750 752 745 745 747 753 759 755 754 769 776 785 756 747 752 759 764 773 794 819 809 798 798 794 761 749 753 755 755 754 754 759
750 749 750 751 752 754 755 772 768 766 754 754 750 754 753 746 744 749 752 753 745 747 766 775 775 749 749 744 745 770 781 765 794 805 798 789 776 750 749 752 758 762 761 762 762
749 749 750 749 750 754 756 772 764 758 750 751 758 752 753 749 750 752 755 742 745 742 739 757 773 753 750 747 756 755 757 783 783 807 809 795 792 770 751 753 763 765 765 767 768
748 746 752 750 753 752 762 762 759 748 749 751 753 752 748 748 747 751 747 740 732 741 742 750 759 760 754 754 755 763 765 775 769 781 789 796 779 749 754 763 766 767 765 768 771
749 748 754 753 755 767 759 759 753 745 741 743 745 745 747 744 745 747 742 731 723 731 750 743 752 767 759 753 750 752 758 757 767 792 790 783 773 750 756 762 762 769 771 772 772
750 752 754 755 757 759 759 754 749 745 743 742 743 742 742 742 751 740 739 720 724 728 740 745 757 774 770 762 757 756 759 764 765 764 783 781 766 753 759 761 766 770 774 776 777
753 753 754 754 758 752 755 752 751 738 740 736 737 735 739 743 740 740 738 723 723 720 726 728 750 753 763 754 749 758 760 764 756 765 770 765 754 751 758 758 762 768 773 777 780
753 755 755 752 751 752 751 749 749 747 736 734 736 735 738 744 742 744 734 727 725 731 728 723 747 755 758 755 753 752 753 759 761 757 763 757 760 750 750 752 758 763 769 773 778
756 757 756 754 753 752 757 749 748 742 740 736 738 734 735 740 741 746 734 729 721 730 731 733 750 752 761 756 754 756 753 752 756 762 762 758 758 748 751 754 760 764 768 772 776
763 762 759 755 752 754 745 743 742 741 727 725 728 730 733 733 728 727 730 727 722 721 730 731 746 753 759 761 757 765 749 749 749 746 745 756 741 747 755 756 761 763 767 770 773
Wind_Speed
13 13 13 11 10 10 10 11 11 11 13 16 17 18 20 21 20 14 5 4 3 4 3 1 3 3 2 2 1 1 1 1 1 3 4 11 6 4 5 11 5 3 5 15 26
13 13 13 13 12 11 11 11 10 11 13 15 16 16 18 20 15 7 7 7 5 6 2 2 3 3 2 2 1 1 1 3 2 5 6 10 11 9 6 10 5 10 14 26 27
13 14 14 13 13 12 11 11 10 11 12 14 14 14 16 15 4 2 7 5 3 6 4 2 2 1 2 1 4 3 3 2 1 5 13 13 8 4 11 7 8 16 19 22 24
14 15 15 14 14 13 11 11 10 10 11 13 13 13 14 4 2 4 5 7 3 2 1 2 3 1 2 4 6 3 3 2 3 8 9 12 11 5 8 1 10 19 22 23 19
15 15 16 16 16 14 12 10 10 9 9 10 10 11 5 2 6 6 5 5 3 2 4 2 1 2 2 2 3 5 3 6 6 7 7 11 5 2 8 7 15 18 18 19 18
15 16 17 17 17 15 12 10 9 8 8 8 8 7 1 5 3 5 3 4 2 3 3 4 4 4 2 2 2 4 11 11 7 8 5 6 4 0 5 13 15 18 17 16 17
16 16 17 18 18 16 12 9 8 7 7 6 5 3 2 12 5 7 12 9 10 6 2 6 4 5 2 3 3 7 10 8 8 5 3 6 4 1 10 12 15 16 16 15 15
16 17 18 20 20 17 11 7 6 6 5 3 2 1 6 5 9 13 10 7 4 5 6 4 3 1 2 2 4 2 3 3 5 7 4 3 1 3 12 13 13 14 15 15 17
18 18 19 20 21 16 9 5 3 3 2 1 1 0 7 7 4 3 3 3 3 2 2 2 1 2 2 6 4 1 3 4 4 8 6 4 1 6 12 12 12 13 14 14 13
18 18 20 21 21 14 5 1 3 3 2 2 0 3 5 1 4 7 2 3 1 1 4 1 2 2 3 2 1 3 3 5 7 11 8 9 8 10 13 13 13 13 13 14 14
18 19 21 21 20 15 1 3 2 2 2 5 1 3 3 10 3 2 1 6 2 4 3 3 3 5 1 1 2 2 5 8 8 8 11 13 9 10 15 14 13 13 13 14 15
20 21 21 21 20 9 2 2 3 2 5 8 9 8 6 2 4 2 3 5 4 3 2 3 4 3 3 3 4 5 3 6 7 9 12 5 13 10 15 20 17 15 15 16 15
20 20 22 21 9 1 2 5 2 1 2 4 4 5 5 9 5 5 7 5 4 6 4 5 2 5 2 4 6 6 4 2 4 4 5 1 6 10 12 16 16 16 17 15 16
21 21 21 17 1 1 3 8 10 9 2 2 3 3 6 5 4 5 6 3 3 9 6 4 2 5 3 3 5 1 5 5 2 3 1 5 4 5 6 13 16 19 17 17 18
23 22 19 9 4 3 3 4 8 3 2 2 3 2 1 6 4 6 2 2 9 8 7 6 8 7 7 3 3 2 2 3 3 4 2 4 4 3 1 9 17 18 19 18 19
25 21 16 3 5 4 4 4 3 2 2 2 3 5 7 3 3 4 5 1 3 5 1 4 0 3 4 2 3 2 3 4 4 1 3 2 5 8 5 2 2 6 17 17 14
27 19 9 6 1 6 4 3 2 2 2 3 1 5 7 7 5 4 8 8 8 8 10 5 6 2 4 4 4 4 0 2 3 4 1 3 5 8 5 3 5 8 7 12 10
23 9 3 7 10 4 3 2 2 1 3 1 2 3 8 8 7 5 7 10 2 3 6 11 11 8 6 8 8 4 2 7 3 2 2 1 5 4 3 3 7 9 2 4 8
11 3 1 3 11 4 2 2 2 4 3 6 1 4 4 4 4 4 8 12 12 8 9 8 8 2 4 2 2 6 11 3 2 1 3 2 4 11 3 1 9 11 9 7 8
4 0 3 4 11 2 2 2 3 3 3 1 1 2 4 7 6 8 10 8 8 11 4 5 7 2 4 5 4 4 8 6 3 4 5 3 3 5 4 6 10 9 9 9 9
1 2 9 12 8 1 4 4 4 7 5 2 2 2 2 3 5 6 11 5 11 11 5 6 2 4 3 3 5 4 5 3 3 1 3 4 3 4 4 6 8 8 7 8 9
1 2 1 3 2 1 4 4 2 5 5 6 3 7 4 7 5 6 10 8 12 15 11 7 2 4 0 1 2 0 1 4 5 5 1 2 4 1 1 6 8 11 9 8 9
2 2 2 3 3 3 1 3 4 4 4 3 3 5 3 4 4 6 6 4 13 15 14 9 4 3 3 2 2 5 4 2 3 2 5 4 5 3 3 6 8 11 9 7 7
1 3 1 1 1 2 2 3 4 4 6 5 3 2 3 4 7 2 5 2 10 11 10 15 5 7 7 2 2 5 7 6 3 3 5 7 6 5 5 6 9 11 11 9 7
2 1 2 4 4 4 3 3 4 3 5 4 3 6 3 2 2 6 7 3 3 6 5 11 10 5 2 2 2 2 10 10 8 4 6 4 7 3 6 9 7 7 9 9 9
2 1 1 1 1 4 4 3 5 6 4 3 4 2 5 4 1 3 3 5 4 6 8 4 5 4 3 2 1 2 5 9 7 3 7 6 9 2 2 8 8 7 8 7 9
3 1 2 1 2 3 3 4 3 2 7 4 6 6 7 1 5 6 8 10 4 9 8 11 9 7 7 2 3 4 9 9 4 5 5 6 0 9 8 9 9 8 7 7 9
Wind_Direction
355 349 342 332 321 312 311 311 316 317 321 325 326 331 341 335 335 322 289 274 319 178 180 55 107 122 114 73 28 98 85 249 220 184 114 144 125 138 87 137 78 31 134 142 154
353 351 348 337 328 316 308 306 310 310 315 320 323 328 338 334 329 291 344 264 213 228 202 181 22 127 42 75 128 205 229 220 217 169 146 149 142 145 137 141 72 86 105 135 150
351 348 348 342 333 317 306 301 302 303 309 316 321 326 334 331 295 210 358 46 214 269 286 47 112 217 42 152 174 177 249 187 209 150 146 147 137 156 153 182 179 155 143 150 158
349 347 347 343 336 325 307 297 294 298 305 311 323 331 331 336 206 186 66 38 105 129 292 312 72 81 223 210 194 238 289 145 137 146 141 158 144 152 173 260 160 159 154 156 167
345 344 344 342 337 328 312 298 291 293 297 308 322 339 340 302 252 214 281 344 92 138 235 228 286 212 218 232 196 229 103 68 129 132 125 137 147 104 176 106 133 148 158 167 174
343 342 342 341 337 330 314 299 286 288 293 304 322 343 358 269 226 229 265 298 88 212 219 222 252 257 195 63 38 111 114 118 115 125 134 147 118 192 124 136 140 156 169 181 180
340 339 340 337 335 329 315 299 281 283 287 297 319 7 200 245 219 251 284 279 289 223 246 222 222 249 73 102 119 127 99 102 110 131 140 133 139 253 147 155 155 169 179 188 193
339 338 337 336 337 331 321 298 278 275 275 281 329 50 254 258 280 283 280 271 257 231 237 303 242 9 17 129 89 63 109 177 140 161 152 249 234 152 160 161 172 178 186 197 200
338 337 336 338 337 335 331 295 268 260 234 198 98 256 263 306 274 323 251 216 196 181 308 114 144 63 82 114 124 63 218 215 175 190 170 220 118 169 177 182 182 191 193 201 210
336 338 337 335 336 335 342 118 111 104 134 120 63 276 257 14 310 313 257 166 139 63 174 118 55 106 107 123 191 214 237 209 211 199 215 208 237 173 185 196 197 199 202 205 209
339 338 337 335 335 329 103 137 198 195 206 223 171 281 313 325 311 287 139 138 127 59 146 32 206 98 103 108 273 234 248 255 232 186 208 230 233 214 191 204 209 206 210 216 216
340 336 335 333 331 321 155 201 99 55 297 236 246 269 271 334 305 281 184 163 155 158 140 157 204 163 142 142 210 245 224 265 290 188 203 211 244 229 195 210 210 209 214 218 229
335 334 333 337 335 55 195 175 112 249 272 286 209 235 240 175 224 250 189 151 150 170 177 201 129 116 160 168 218 205 222 244 295 84 167 181 265 230 217 218 208 219 222 226 225
337 333 331 345 50 317 241 179 306 175 291 243 232 258 172 178 224 214 202 156 158 214 174 245 161 208 126 232 237 258 200 169 171 188 274 228 296 245 241 225 215 217 217 219 226
337 330 326 336 268 215 167 300 126 181 273 108 160 13 140 198 128 188 181 117 180 166 187 193 163 160 237 242 185 359 191 63 194 148 272 183 265 300 325 243 235 224 225 221 223
333 325 319 299 223 200 285 160 163 206 237 69 137 158 165 214 181 118 168 98 110 142 190 169 31 232 222 125 250 147 79 78 89 205 260 11 242 289 274 353 350 267 236 232 224
332 317 278 210 209 144 130 177 194 227 340 35 183 175 184 179 176 153 165 182 170 172 180 183 201 181 216 170 172 73 282 223 181 193 292 4 211 273 275 332 294 315 293 246 211
333 318 282 205 203 226 149 169 208 289 298 339 334 167 197 164 197 159 150 182 159 177 168 199 212 213 168 232 199 166 279 292 268 248 133 141 226 262 332 328 348 17 4 134 166
341 347 299 21 206 141 190 187 230 207 306 318 359 186 180 186 180 170 186 194 193 188 196 176 222 218 216 138 153 145 205 238 144 101 236 181 256 277 313 335 63 66 81 106 138
338 345 21 308 176 158 159 241 233 229 292 256 63 203 162 162 176 192 184 186 194 203 217 173 203 190 118 117 63 224 143 178 224 226 251 192 268 251 316 53 71 75 93 113 123
69 138 1 120 130 133 196 230 247 242 227 257 237 281 168 166 196 191 192 174 206 183 190 163 246 150 191 199 171 151 183 71 109 283 262 271 243 218 239 52 83 92 91 109 123
325 114 63 335 141 335 180 200 218 256 212 251 252 238 224 177 183 205 201 226 181 156 183 185 190 228 184 76 20 129 205 204 248 185 81 313 257 126 118 98 120 112 103 104 135
57 98 165 326 169 180 217 247 241 236 222 212 245 218 184 209 233 218 209 232 171 171 175 171 206 173 152 161 153 227 161 138 164 134 183 243 262 122 132 128 115 117 112 111 133
244 131 128 78 346 151 153 245 248 224 249 235 257 181 193 230 229 267 235 261 197 212 151 167 178 220 224 113 126 182 163 180 285 208 171 233 273 204 168 157 137 122 125 129 149
354 73 359 180 206 194 197 257 232 265 224 213 201 223 213 237 219 212 234 206 103 137 138 175 210 200 327 309 188 223 175 176 205 233 241 348 241 52 189 175 136 118 123 134 141
359 348 14 278 260 196 178 232 231 237 239 201 238 194 189 163 198 264 321 229 175 170 165 187 183 157 120 66 221 217 194 207 221 208 252 262 279 153 153 124 137 144 131 135 143
356 304 282 141 186 194 212 210 221 347 230 222 240 173 118 166 250 265 246 279 255 165 159 169 159 177 213 133 168 228 207 199 188 203 260 224 76 159 157 154 153 151 148 133 134